Location: Goettingen
(51.5300°N, 9.9433°E)
Time: 04:12:14
(UTC+01:00)

ISS - Pass Details

Date: 13 March 2026
Orbit: 417 x 426 km, 51.6° (Epoch: 16 March)

Event Time Altitude Azimuth Distance (km) Brightness Sun altitude
Rises 21:20:49 0° 256° (WSW) 2,378 0.6 -27.3°
Reaches altitude 10° 21:22:55 10° 256° (WSW) 1,513 -0.5 -27.6°
Enters shadow 21:23:19 13° 255° (WSW) 1,351 -0.8 -27.6°
